Location: downtown San Diego
(32.7310°N, 117.1990°W)
Time: 15:41:18
(UTC-07:00)

Daily predictions for brighter satellites

Satellite Brightness Start Highest point End
(mag) Time Altitude Azimuth Time Altitude Azimuth Time Altitude Azimuth
Cosmos 2266 Rocket 4.1 19:50:53 10° N 19:56:58 54° E 20:02:53 10° SSE
Cosmos 2263 Rocket 2.3 19:57:51 10° SSW 20:03:24 84° WNW 20:09:00 10° NNE
Meteor 2-3 Rocket 3.7 19:57:54 10° N 20:03:34 80° E 20:09:08 10° S
DELTA 2 R/B (1) 4.4 19:58:27 10° W 20:03:52 52° NNW 20:09:18 10° ENE
H-2A R/B 3.3 19:59:19 10° S 20:03:56 42° W 20:08:35 10° NNW
X-37B 3.1 20:02:35 10° W 20:05:11 23° NNW 20:07:48 10° NNE
Cosmos 1943 4.4 20:01:59 10° N 20:06:39 26° ENE 20:11:17 10° ESE
Meteor 1-27 4.5 20:00:58 10° S 20:06:46 81° W 20:12:38 10° N
Cosmos 1655 Rocket 4.0 20:00:44 10° N 20:06:58 80° E 20:13:11 10° S
Cosmos-2242 4.2 20:03:10 10° SSW 20:07:17 47° W 20:11:25 10° N
Meteor 2-21 Rocket 4.4 20:02:53 10° N 20:09:00 76° E 20:15:07 10° S
Cosmos 1869 3.3 20:05:08 10° S 20:09:02 87° W 20:12:55 10° N
CSL-04 Debris 4.2 20:03:49 10° SSE 20:09:15 80° ENE 20:14:41 10° N
Cosmos 1844 Rocket 4.0 20:06:21 10° SE 20:09:58 18° E 20:13:35 10° ENE
CZ-2C R/B 3.8 20:05:36 10° N 20:10:46 50° WNW 20:16:02 10° SSW
H-2A R/B 1.6 20:09:37 10° WSW 20:11:23 23° S 20:12:53 12° SE
Meteor 1-4 Rocket 3.8 20:12:35 10° SSW 20:15:58 44° W 20:19:27 10° N
OBJECT-B 1.9 20:15:34 11° SE 20:18:07 27° ENE 20:20:56 10° NNE
USA 229 DEB 4.2 20:11:12 10° NNW 20:18:31 54° NE 20:25:39 12° SE
USA 229 4.2 20:11:17 10° NNW 20:18:36 54° NE 20:25:43 12° SE
ERS-2 2.4 20:18:12 10° N 20:21:49 73° WNW 20:25:25 10° SSW
Helios 1A Rocket 2.9 20:19:42 10° SSE 20:23:47 83° ENE 20:27:57 10° N
Cosmos 1763 Rocket 3.5 20:21:49 10° NNW 20:26:55 84° WSW 20:32:02 10° SSE
Meteor 2-15 4.4 20:22:15 10° S 20:28:13 67° E 20:34:13 10° NNE
Resurs 01 Rocket 3.5 20:27:23 12° E 20:29:03 15° ENE 20:31:30 10° NE
CSL-04 Rocket 3.9 20:23:51 10° S 20:29:05 72° WSW 20:34:24 10° NNW
Lacrosse 5 rocket 1.6 20:24:55 10° NNW 20:29:14 63° NE 20:32:35 17° SE
Cosmos 841 Rocket 3.8 20:26:50 10° N 20:31:48 46° ENE 20:35:38 16° SE
SJ-6B 3.0 20:28:46 13° SSE 20:31:59 49° ENE 20:35:43 10° N
Cosmos 2221 2.5 20:29:18 10° S 20:33:29 62° E 20:37:44 10° NNE
Cosmos 1766 Rocket 3.6 20:31:46 10° N 20:36:11 82° W 20:40:35 10° S
Cosmos 468 Rocket 4.4 20:31:44 10° NNW 20:36:51 63° WSW 20:41:59 10° S
NOSS 3-1 (A) 4.3 20:29:10 10° NNW 20:37:07 68° ENE 20:44:34 16° SE
Cosmos 482 Debris 4.0 20:39:41 10° NNW 20:41:24 23° NE 20:41:25 23° NE
Cosmos 1174 3.9 20:44:06 10° NNW 20:47:29 40° ENE 20:48:23 31° E
USA 186 2.7 20:49:20 11° S 20:51:51 39° W 20:54:23 10° NNW
MetOp-A 4.5 20:46:48 10° S 20:52:07 66° WSW 20:57:26 10° NNW
Nadezhda 2 Rocket 4.5 20:46:19 10° N 20:52:22 61° E 20:57:02 17° SSE
Cosmos 1570 Rocket 4.2 20:48:17 10° N 20:53:23 51° ENE 20:56:04 26° SE
Cosmos 1553 Rocket 4.0 20:48:24 10° S 20:54:19 57° E 21:00:20 10° NNE
ATLAS 5 CENTAUR R/B 4.5 20:54:22 10° W 20:56:25 15° SW 20:59:49 10° S
Ariane Rocket 3.0 20:55:02 22° SSE 20:58:14 65° ENE 21:03:15 10° N
SPOT 3 Rocket 4.2 21:04:23 30° ESE 21:05:57 37° ENE 21:10:39 10° N
Cosmos 1417 Rocket 4.5 21:02:15 13° S 21:07:51 63° E 21:13:59 10° NNE
Cosmos 1603 3.7 21:04:26 10° NNW 21:10:07 81° WSW 21:13:25 26° SSE
Cosmos 1606 2.5 21:10:25 29° S 21:12:14 88° W 21:16:00 10° N
Cosmos 1814 Rocket 3.9 21:08:49 10° NNW 21:14:03 81° ENE 21:16:15 35° SSE
GENESIS II 4.2 21:15:16 10° NNW 21:19:07 75° WSW 21:19:46 58° S
IRS-1A Rocket 4.5 21:17:21 22° S 21:21:10 73° WSW 21:26:57 10° NNW
Cosmos 1408 Rocket 4.5 21:18:36 10° NNW 21:22:49 46° W 21:25:43 19° SSW
ASTRO E2 2.5 21:19:29 10° W 21:23:27 73° S 21:23:32 72° S
Cosmos 1933 4.1 21:26:46 38° NE 21:26:46 38° NE 21:29:41 10° NNE
Cosmos 1486 Rocket 4.0 21:24:30 10° SSW 21:29:48 85° WNW 21:35:10 10° NNE
Resurs 1-3 4.2 21:32:34 33° SSW 21:34:13 51° W 21:38:29 10° NNW
Cosmos 968 Rocket 4.0 21:29:30 10° SSW 21:34:41 59° WNW 21:39:52 10° N
Cosmos 921 Rocket 4.1 21:34:14 10° NNW 21:38:10 38° W 21:39:28 30° SW
Cosmos 1805 Rocket 3.7 21:34:43 10° N 21:38:37 60° NE 21:38:37 60° NE
Terra 4.0 21:46:08 14° NE 21:46:08 14° NE 21:47:33 10° NNE
Cosmos 1943 4.4 21:45:36 10° NW 21:50:40 35° WSW 21:53:12 24° SSW
Cosmos 1437 Rocket 4.3 21:52:14 29° WSW 21:53:12 33° WNW 21:56:43 10° NNW
Cosmos 1844 Rocket 3.6 21:48:02 10° SW 21:53:22 47° WNW 21:58:44 10° N
Meteor 1-26 Rocket 4.1 21:56:54 71° ESE 21:56:59 71° E 22:02:37 10° NNE
Cosmos 883 Rocket 4.4 22:02:55 60° S 22:04:13 88° W 22:10:34 10° N
Resurs 01 Rocket 2.6 22:04:57 40° WSW 22:05:08 40° W 22:09:20 10° NNW
Spot 2 Rocket 3.8 22:07:14 55° NNE 22:07:14 55° NNE 22:11:25 10° N
MetOp-B 4.2 22:06:44 69° SW 22:07:01 71° WSW 22:12:23 10° NNW
Cosmos 1386 Rocket 4.5 22:01:16 10° N 22:07:16 72° W 22:08:21 59° SSW
Lacrosse 5 rocket 4.0 22:06:02 10° W 22:07:58 13° WSW 22:08:13 13° WSW
Cosmos 1745 Rocket 4.1 22:02:21 10° NNW 22:08:30 68° W 22:09:46 54° SSW
Cosmos 1709 Rocket 3.9 22:05:43 10° N 22:11:33 69° ENE 22:11:33 69° ENE
Cosmos 2315 Rocket 3.9 22:12:10 75° S 22:12:45 89° E 22:19:10 10° N
NOSS 3-3 (A) 3.9 22:20:49 68° NNE 22:20:49 68° NNE 22:26:11 10° NNE
NOSS 3-3 (C) 3.9 22:21:01 66° NNE 22:21:01 66° NNE 22:26:17 10° NNE
ERS-1 Rocket 3.9 22:31:21 42° N 22:31:21 42° N 22:34:41 10° N
ATLAS 5 CENTAUR R/B 3.3 22:24:11 10° NNW 22:29:11 37° NE 22:29:11 37° NE
SPOT 1/Viking Rocket 4.3 22:33:07 47° WNW 22:33:07 47° WNW 22:37:36 10° NNW
SL-4 R/B 4.0 22:36:29 10° NW 22:38:58 30° NNW 22:38:58 30° NNW
CZ-4C R/B 4.2 22:37:38 10° N 22:44:06 30° NE 22:45:05 29° ENE
Cosmos 2082 Rocket 4.4 22:56:22 10° NNE 22:58:24 15° NE 22:58:24 15° NE
Cosmos 2278 Rocket 3.7 23:20:17 32° N 23:20:17 32° N 23:23:22 10° NNE
Terra 4.1 23:25:00 21° NW 23:25:00 21° NW 23:26:45 10° NNW
Milstar 3 4.5 23:23:16 10° WSW 23:29:15 32° WSW 23:29:15 32° WSW
